Regional Weather Roundup
Issued by NWS Goodland, KS

Home | Current Version | Previous Version | Text Only | Print | Product List | Glossary Off
Versions: 1 2 3 4 5 6 7 8 9 10 11 12 13 14 15 16 17 18 19 20 21 22 23 24 25 26 27 28 29 30 31 32 33 34 35 36 37 38 39 40 41 42 43 44 45 46 47 48 49 50

000
ASUS43 KGLD 181608
RWRGLD

GOODLAND FORECAST AREA HOURLY WEATHER ROUNDUP
NATIONAL WEATHER SERVICE GOODLAND KS
1000 AM MDT THU SEP 18 2014

...OFFICIAL OBSERVATIONS...

CITY           SKY/WX    TMP DP  RH WIND       PRES   REMARKS
GOODLAND KS    CLOUDY    67  62  84 VRB3      30.01R
HILL CITY KS   FOG       64  63  96 E10       29.98R VSB 1
IMPERIAL NEB   CLOUDY    64  62  93 SE8       30.00R
MCCOOK NEB     FOG       63  62  97 E10       29.99S VSB 3/4
AKRON CO       SUNNY     72  47  40 VRB6      30.04R
BURLINGTON CO  CLOUDY    63  61  93 VRB5      30.03R
LIMON CO       SUNNY     76  43  30 CALM      30.07S
$$

...UNOFFICIAL OBSERVATIONS...

CITY           SKY/WX    TMP DP  RH WIND       PRES   REMARKS
GOVE KS          N/A     67  32  27 MISG        N/A
SHARON SPRINGS   N/A     64  63  97 CALM        N/A
WAKEENEY KS      N/A     65  65  97 MISG        N/A
TRENTON NEB      N/A     65  32  29 CALM        N/A
YUMA CO          N/A     64  64 100 CALM        N/A
$$



USA.gov is the U.S. government's official web portal to all federal, state and local government web resources and services.